| time (UTC) | temp C | wind direction | speed KPH | gust KPH | rain 1hr cm | rain 24hr cm | rain mn cm | humidity % | barometer mb |
| 20260506215559 | 27 | 117 | 4.8 | 9.7 | 0.00 | 0.00 | 0.00 | 24 | 947.0 |
| 20260506215353 | 27 | 357 | 4.8 | 9.7 | 0.00 | 0.00 | 0.00 | 24 | 947.0 |
| 20260506215147 | 27 | 158 | 3.2 | 12.9 | 0.00 | 0.00 | 0.00 | 25 | 947.0 |
| 20260506214626 | 26 | 223 | 6.4 | 12.9 | 0.00 | 0.00 | 0.00 | 25 | 947.0 |
| 20260506213741 | 26 | 238 | 6.4 | 12.9 | 0.00 | 0.00 | 0.00 | 25 | 947.0 |
| 20260506213535 | 26 | 211 | 4.8 | 12.9 | 0.00 | 0.00 | 0.00 | 26 | 947.0 |
| 20260506213005 | 26 | 235 | 4.8 | 11.3 | 0.00 | 0.00 | 0.00 | 27 | 947.0 |
| 20260506212800 | 26 | 167 | 4.8 | 14.5 | 0.00 | 0.00 | 0.00 | 25 | 947.0 |
| 20260506212229 | 26 | 177 | 1.6 | 14.5 | 0.00 | 0.00 | 0.00 | 27 | 947.0 |
| 20260506212025 | 26 | 294 | 3.2 | 14.5 | 0.00 | 0.00 | 0.00 | 26 | 947.0 |
| 20260506211814 | 26 | 310 | 4.8 | 16.1 | 0.00 | 0.00 | 0.00 | 27 | 947.0 |
| 20260506211604 | 26 | 198 | 4.8 | 16.1 | 0.00 | 0.00 | 0.00 | 26 | 947.0 |
| 20260506211354 | 26 | 0 | 4.8 | 16.1 | 0.00 | 0.00 | 0.00 | 26 | 947.0 |
| 20260506210946 | 26 | 245 | 4.8 | 16.1 | 0.00 | 0.00 | 0.00 | 29 | 947.0 |
| 20260506210743 | 26 | 16 | 6.4 | 16.1 | 0.00 | 0.00 | 0.00 | 30 | 947.0 |
| 20260506210544 | 26 | 171 | 0.0 | 16.1 | 0.00 | 0.00 | 0.00 | 28 | 947.0 |
| 20260506210341 | 26 | 168 | 3.2 | 16.1 | 0.00 | 0.00 | 0.00 | 26 | 947.0 |
| 20260506210130 | 26 | 206 | 6.4 | 16.1 | 0.00 | 0.00 | 0.00 | 27 | 947.0 |
| 20260506205611 | 25 | 273 | 0.0 | 0.0 | 0.00 | 0.00 | 0.00 | 30 | 947.0 |
| 20260506205401 | 25 | 249 | 4.8 | 12.9 | 0.00 | 0.00 | 0.00 | 30 | 948.0 |
| 20260506205156 | 25 | 145 | 6.4 | 12.9 | 0.00 | 0.00 | 0.00 | 29 | 948.0 |
| 20260506204952 | 25 | 157 | 11.3 | 12.9 | 0.00 | 0.00 | 0.00 | 30 | 948.0 |
| 20260506204741 | 25 | 93 | 4.8 | 8.0 | 0.00 | 0.00 | 0.00 | 30 | 948.0 |
| 20260506204533 | 25 | 115 | 0.0 | 4.8 | 0.00 | 0.00 | 0.00 | 30 | 948.0 |
| 20260506204333 | 25 | 329 | 3.2 | 12.9 | 0.00 | 0.00 | 0.00 | 30 | 948.0 |
| 20260506204129 | 25 | 289 | 4.8 | 12.9 | 0.00 | 0.00 | 0.00 | 30 | 948.0 |
| 20260506203930 | 25 | 149 | 4.8 | 12.9 | 0.00 | 0.00 | 0.00 | 30 | 948.0 |
| 20260506203413 | 25 | 263 | 1.6 | 12.9 | 0.00 | 0.00 | 0.00 | 30 | 948.0 |
| 20260506202538 | 25 | 115 | 0.0 | 12.9 | 0.00 | 0.00 | 0.00 | 30 | 948.0 |
| 20260506202331 | 25 | 300 | 4.8 | 12.9 | 0.00 | 0.00 | 0.00 | 30 | 948.0 |
| 20260506202131 | 25 | 127 | 6.4 | 12.9 | 0.00 | 0.00 | 0.00 | 30 | 948.0 |
| 20260506201920 | 25 | 149 | 4.8 | 12.9 | 0.00 | 0.00 | 0.00 | 30 | 948.0 |
| 20260506201347 | 25 | 203 | 8.0 | 12.9 | 0.00 | 0.00 | 0.00 | 30 | 948.0 |
| 20260506201141 | 25 | 207 | 0.0 | 12.9 | 0.00 | 0.00 | 0.00 | 31 | 948.0 |
| 20260506200936 | 25 | 26 | 1.6 | 12.9 | 0.00 | 0.00 | 0.00 | 31 | 948.0 |
| 20260506200727 | 25 | 101 | 1.6 | 12.9 | 0.00 | 0.00 | 0.00 | 30 | 948.0 |
| 20260506200519 | 25 | 145 | 1.6 | 12.9 | 0.00 | 0.00 | 0.00 | 30 | 948.0 |
| 20260506200316 | 25 | 8 | 1.6 | 12.9 | 0.00 | 0.00 | 0.00 | 30 | 948.0 |
| 20260506200114 | 25 | 0 | 0.0 | 12.9 | 0.00 | 0.00 | 0.00 | 30 | 948.0 |
| 20260506195913 | 25 | 333 | 1.6 | 12.9 | 0.00 | 0.00 | 0.00 | 30 | 948.0 |
| 20260506195713 | 25 | 155 | 4.8 | 12.9 | 0.00 | 0.00 | 0.00 | 30 | 948.0 |
| 20260506195509 | 25 | 118 | 3.2 | 12.9 | 0.00 | 0.00 | 0.00 | 30 | 948.0 |
| 20260506194941 | 25 | 201 | 6.4 | 12.9 | 0.00 | 0.00 | 0.00 | 31 | 948.0 |
| 20260506194741 | 24 | 247 | 4.8 | 12.9 | 0.00 | 0.00 | 0.00 | 31 | 948.0 |
| 20260506194534 | 24 | 155 | 9.7 | 12.9 | 0.00 | 0.00 | 0.00 | 31 | 948.0 |
| 20260506194327 | 24 | 66 | 4.8 | 14.5 | 0.00 | 0.00 | 0.00 | 31 | 948.0 |
| 20260506194119 | 24 | 304 | 6.4 | 14.5 | 0.00 | 0.00 | 0.00 | 31 | 948.0 |
| 20260506193604 | 24 | 167 | 4.8 | 14.5 | 0.00 | 0.00 | 0.00 | 31 | 948.0 |
| 20260506193358 | 23 | 244 | 6.4 | 14.5 | 0.00 | 0.00 | 0.00 | 31 | 948.0 |
| 20260506193158 | 23 | 154 | 8.0 | 14.5 | 0.00 | 0.00 | 0.00 | 31 | 948.0 |
| 20260506192951 | 23 | 165 | 4.8 | 14.5 | 0.00 | 0.00 | 0.00 | 31 | 948.0 |
| 20260506192741 | 23 | 89 | 6.4 | 14.5 | 0.00 | 0.00 | 0.00 | 31 | 948.0 |
| 20260506192214 | 23 | 208 | 6.4 | 12.9 | 0.00 | 0.00 | 0.00 | 32 | 948.0 |
| 20260506192011 | 23 | 215 | 3.2 | 12.9 | 0.00 | 0.00 | 0.00 | 32 | 948.0 |
| 20260506191804 | 23 | 268 | 6.4 | 12.9 | 0.00 | 0.00 | 0.00 | 32 | 948.0 |
| 20260506191556 | 23 | 267 | 4.8 | 12.9 | 0.00 | 0.00 | 0.00 | 32 | 948.0 |
| 20260506191349 | 23 | 307 | 4.8 | 12.9 | 0.00 | 0.00 | 0.00 | 32 | 948.0 |
| 20260506191151 | 23 | 326 | 4.8 | 12.9 | 0.00 | 0.00 | 0.00 | 32 | 948.0 |
| 20260506190950 | 23 | 76 | 1.6 | 12.9 | 0.00 | 0.00 | 0.00 | 32 | 948.0 |
| 20260506190750 | 23 | 181 | 3.2 | 12.9 | 0.00 | 0.00 | 0.00 | 32 | 948.0 |
| 20260506190544 | 23 | 203 | 6.4 | 12.9 | 0.00 | 0.00 | 0.00 | 32 | 948.0 |
| 20260506190340 | 23 | 227 | 6.4 | 12.9 | 0.00 | 0.00 | 0.00 | 31 | 948.0 |
| 20260506185814 | 24 | 156 | 6.4 | 12.9 | 0.00 | 0.00 | 0.00 | 31 | 948.0 |
| 20260506185611 | 23 | 154 | 3.2 | 12.9 | 0.00 | 0.00 | 0.00 | 31 | 948.0 |
| 20260506185401 | 23 | 158 | 1.6 | 6.4 | 0.00 | 0.00 | 0.00 | 32 | 948.0 |
| 20260506185153 | 22 | 353 | 0.0 | 0.0 | 0.00 | 0.00 | 0.00 | 32 | 948.0 |
| 20260506184943 | 22 | 333 | 1.6 | 14.5 | 0.00 | 0.00 | 0.00 | 32 | 948.0 |
| 20260506184742 | 23 | 271 | 8.0 | 14.5 | 0.00 | 0.00 | 0.00 | 31 | 948.0 |
| 20260506184223 | 22 | 135 | 6.4 | 14.5 | 0.00 | 0.00 | 0.00 | 32 | 948.0 |
| 20260506184016 | 22 | 219 | 6.4 | 11.3 | 0.00 | 0.00 | 0.00 | 32 | 948.0 |
| 20260506183807 | 22 | 86 | 1.6 | 11.3 | 0.00 | 0.00 | 0.00 | 32 | 948.0 |
| 20260506183600 | 22 | 57 | 4.8 | 11.3 | 0.00 | 0.00 | 0.00 | 32 | 948.0 |
| 20260506183043 | 22 | 273 | 4.8 | 11.3 | 0.00 | 0.00 | 0.00 | 32 | 948.0 |
| 20260506182844 | 22 | 151 | 4.8 | 11.3 | 0.00 | 0.00 | 0.00 | 32 | 948.0 |
| 20260506182644 | 22 | 76 | 3.2 | 8.0 | 0.00 | 0.00 | 0.00 | 32 | 948.0 |
| 20260506182434 | 22 | 85 | 4.8 | 8.0 | 0.00 | 0.00 | 0.00 | 32 | 948.0 |
| 20260506182233 | 22 | 173 | 4.8 | 8.0 | 0.00 | 0.00 | 0.00 | 32 | 948.0 |
| 20260506182034 | 22 | 209 | 3.2 | 9.7 | 0.00 | 0.00 | 0.00 | 32 | 948.0 |
| 20260506181834 | 22 | 223 | 3.2 | 9.7 | 0.00 | 0.00 | 0.00 | 32 | 948.0 |
| 20260506180945 | 22 | 156 | 6.4 | 11.3 | 0.00 | 0.00 | 0.00 | 32 | 948.0 |
| 20260506180745 | 22 | 154 | 6.4 | 11.3 | 0.00 | 0.00 | 0.00 | 32 | 948.0 |
| 20260506180536 | 22 | 162 | 4.8 | 11.3 | 0.00 | 0.00 | 0.00 | 32 | 948.0 |
| 20260506180327 | 22 | 101 | 1.6 | 11.3 | 0.00 | 0.00 | 0.00 | 32 | 948.0 |
| 20260506180121 | 22 | 124 | 3.2 | 11.3 | 0.00 | 0.00 | 0.00 | 32 | 948.0 |
| 20260506175913 | 22 | 56 | 3.2 | 11.3 | 0.00 | 0.00 | 0.00 | 32 | 948.0 |
| 20260506175710 | 22 | 147 | 3.2 | 11.3 | 0.00 | 0.00 | 0.00 | 32 | 948.0 |
| 20260506175501 | 22 | 182 | 4.8 | 11.3 | 0.00 | 0.00 | 0.00 | 32 | 948.0 |
| 20260506175259 | 22 | 196 | 4.8 | 11.3 | 0.00 | 0.00 | 0.00 | 32 | 948.0 |
| 20260506175055 | 22 | 139 | 8.0 | 11.3 | 0.00 | 0.00 | 0.00 | 32 | 948.0 |
| 20260506174850 | 22 | 139 | 4.8 | 9.7 | 0.00 | 0.00 | 0.00 | 32 | 948.0 |
| 20260506174315 | 21 | 0 | 0.0 | 3.2 | 0.00 | 0.00 | 0.00 | 33 | 948.0 |
| 20260506174115 | 21 | 357 | 0.0 | 9.7 | 0.00 | 0.00 | 0.00 | 33 | 948.0 |
| 20260506173235 | 21 | 37 | 3.2 | 6.4 | 0.00 | 0.00 | 0.00 | 35 | 949.0 |
| 20260506173029 | 21 | 45 | 4.8 | 6.4 | 0.00 | 0.00 | 0.00 | 34 | 949.0 |
| 20260506172821 | 20 | 45 | 1.6 | 6.4 | 0.00 | 0.00 | 0.00 | 35 | 949.0 |
| 20260506172621 | 20 | 13 | 0.0 | 6.4 | 0.00 | 0.00 | 0.00 | 34 | 949.0 |
| 20260506172414 | 20 | 314 | 0.0 | 6.4 | 0.00 | 0.00 | 0.00 | 35 | 949.0 |
| 20260506172208 | 20 | 307 | 1.6 | 6.4 | 0.00 | 0.00 | 0.00 | 33 | 949.0 |
| 20260506171958 | 20 | 62 | 4.8 | 6.4 | 0.00 | 0.00 | 0.00 | 35 | 949.0 |
| 20260506171757 | 19 | 45 | 4.8 | 6.4 | 0.00 | 0.00 | 0.00 | 34 | 949.0 |
| 20260506171240 | 19 | 28 | 0.0 | 0.0 | 0.00 | 0.00 | 0.00 | 34 | 949.0 |
| 20260506171034 | 18 | 28 | 6.4 | 9.7 | 0.00 | 0.00 | 0.00 | 33 | 949.0 |
| 20260506170831 | 18 | 26 | 0.0 | 4.8 | 0.00 | 0.00 | 0.00 | 33 | 949.0 |
| 20260506170632 | 19 | 22 | 0.0 | 0.0 | 0.00 | 0.00 | 0.00 | 33 | 949.0 |
| 20260506170115 | 18 | 11 | 3.2 | 9.7 | 0.00 | 0.00 | 0.00 | 33 | 949.0 |
| 20260506165227 | 18 | 175 | 4.8 | 9.7 | 0.00 | 0.00 | 0.00 | 34 | 949.0 |
| 20260506165024 | 18 | 180 | 0.0 | 9.7 | 0.00 | 0.00 | 0.00 | 34 | 949.0 |
| 20260506164502 | 17 | 52 | 4.8 | 9.7 | 0.00 | 0.00 | 0.00 | 35 | 949.0 |
| 20260506164252 | 17 | 39 | 4.8 | 4.8 | 0.00 | 0.00 | 0.00 | 37 | 949.0 |
| 20260506164044 | 17 | 57 | 0.0 | 0.0 | 0.00 | 0.00 | 0.00 | 37 | 949.0 |
| 20260506163841 | 17 | 57 | 0.0 | 0.0 | 0.00 | 0.00 | 0.00 | 37 | 949.0 |
| 20260506163630 | 17 | 56 | 0.0 | 0.0 | 0.00 | 0.00 | 0.00 | 38 | 949.0 |
| 20260506163110 | 16 | 81 | 1.6 | 4.8 | 0.00 | 0.00 | 0.00 | 38 | 949.0 |
| 20260506162221 | 16 | 32 | 4.8 | 8.0 | 0.00 | 0.00 | 0.00 | 38 | 949.0 |
| 20260506162016 | 16 | 21 | 0.0 | 4.8 | 0.00 | 0.00 | 0.00 | 40 | 949.0 |
| 20260506161807 | 15 | 21 | 3.2 | 4.8 | 0.00 | 0.00 | 0.00 | 39 | 949.0 |
| 20260506161603 | 15 | 65 | 0.0 | 0.0 | 0.00 | 0.00 | 0.00 | 39 | 949.0 |
| 20260506161403 | 15 | 46 | 0.0 | 6.4 | 0.00 | 0.00 | 0.00 | 41 | 949.0 |
| 20260506160838 | 15 | 126 | 0.0 | 0.0 | 0.00 | 0.00 | 0.00 | 38 | 949.0 |
| 20260506160310 | 14 | 147 | 0.0 | 4.8 | 0.00 | 0.00 | 0.00 | 39 | 949.0 |
| 20260506155902 | 14 | 43 | 0.0 | 6.4 | 0.00 | 0.00 | 0.00 | 41 | 949.0 |
| 20260506155701 | 13 | 43 | 3.2 | 6.4 | 0.00 | 0.00 | 0.00 | 40 | 949.0 |
| 20260506155455 | 13 | 43 | 4.8 | 6.4 | 0.00 | 0.00 | 0.00 | 38 | 949.0 |
| 20260506155244 | 13 | 54 | 1.6 | 4.8 | 0.00 | 0.00 | 0.00 | 39 | 949.0 |
| 20260506155034 | 13 | 64 | 4.8 | 4.8 | 0.00 | 0.00 | 0.00 | 39 | 949.0 |
| 20260506154828 | 13 | 61 | 3.2 | 4.8 | 0.00 | 0.00 | 0.00 | 40 | 949.0 |
| 20260506154618 | 13 | 47 | 0.0 | 4.8 | 0.00 | 0.00 | 0.00 | 41 | 949.0 |
| 20260506154412 | 13 | 337 | 0.0 | 0.0 | 0.00 | 0.00 | 0.00 | 41 | 949.0 |
| 20260506154206 | 13 | 337 | 0.0 | 0.0 | 0.00 | 0.00 | 0.00 | 41 | 949.0 |
| 20260506154006 | 13 | 336 | 0.0 | 0.0 | 0.00 | 0.00 | 0.00 | 43 | 949.0 |
| 20260506153806 | 13 | 336 | 0.0 | 0.0 | 0.00 | 0.00 | 0.00 | 40 | 949.0 |
| 20260506153559 | 13 | 336 | 3.2 | 4.8 | 0.00 | 0.00 | 0.00 | 41 | 949.0 |
| 20260506153351 | 13 | 54 | 0.0 | 4.8 | 0.00 | 0.00 | 0.00 | 45 | 949.0 |
| 20260506153141 | 13 | 54 | 0.0 | 4.8 | 0.00 | 0.00 | 0.00 | 46 | 949.0 |
| 20260506152931 | 12 | 53 | 0.0 | 4.8 | 0.00 | 0.00 | 0.00 | 45 | 949.0 |
| 20260506152721 | 12 | 63 | 0.0 | 0.0 | 0.00 | 0.00 | 0.00 | 47 | 949.0 |
| 20260506152201 | 12 | 63 | 0.0 | 0.0 | 0.00 | 0.00 | 0.00 | 51 | 949.0 |
| 20260506151950 | 12 | 63 | 0.0 | 0.0 | 0.00 | 0.00 | 0.00 | 52 | 949.0 |
| 20260506151746 | 12 | 63 | 0.0 | 0.0 | 0.00 | 0.00 | 0.00 | 53 | 949.0 |
| 20260506151536 | 12 | 63 | 0.0 | 0.0 | 0.00 | 0.00 | 0.00 | 54 | 949.0 |
| 20260506151011 | 12 | 63 | 0.0 | 0.0 | 0.00 | 0.00 | 0.00 | 55 | 949.0 |
| 20260506150807 | 12 | 76 | 0.0 | 0.0 | 0.00 | 0.00 | 0.00 | 55 | 949.0 |
| 20260506150556 | 11 | 76 | 0.0 | 0.0 | 0.00 | 0.00 | 0.00 | 55 | 949.0 |
| 20260506150350 | 11 | 76 | 0.0 | 4.8 | 0.00 | 0.00 | 0.00 | 56 | 949.0 |
| 20260506145833 | 11 | 76 | 1.6 | 4.8 | 0.00 | 0.00 | 0.00 | 58 | 949.0 |
| 20260506145627 | 11 | 76 | 1.6 | 3.2 | 0.00 | 0.00 | 0.00 | 58 | 949.0 |
| 20260506145427 | 11 | 79 | 0.0 | 0.0 | 0.00 | 0.00 | 0.00 | 60 | 949.0 |
| 20260506144906 | 11 | 174 | 0.0 | 0.0 | 0.00 | 0.00 | 0.00 | 61 | 949.0 |
| 20260506144346 | 10 | 174 | 0.0 | 0.0 | 0.00 | 0.00 | 0.00 | 61 | 949.0 |
| 20260506143455 | 10 | 174 | 0.0 | 0.0 | 0.00 | 0.00 | 0.00 | 64 | 949.0 |
| 20260506143254 | 10 | 174 | 0.0 | 0.0 | 0.00 | 0.00 | 0.00 | 64 | 949.0 |
| 20260506143046 | 10 | 175 | 0.0 | 0.0 | 0.00 | 0.00 | 0.00 | 66 | 949.0 |
| 20260506142841 | 10 | 175 | 0.0 | 0.0 | 0.00 | 0.00 | 0.00 | 66 | 949.0 |
| 20260506142632 | 9 | 175 | 0.0 | 0.0 | 0.00 | 0.00 | 0.00 | 67 | 949.0 |
| 20260506142430 | 9 | 175 | 0.0 | 0.0 | 0.00 | 0.00 | 0.00 | 67 | 949.0 |
| 20260506142221 | 9 | 174 | 0.0 | 0.0 | 0.00 | 0.00 | 0.00 | 67 | 949.0 |
| 20260506141654 | 9 | 174 | 0.0 | 0.0 | 0.00 | 0.00 | 0.00 | 69 | 949.0 |
| 20260506141136 | 8 | 174 | 0.0 | 0.0 | 0.00 | 0.00 | 0.00 | 69 | 949.0 |
| 20260506140933 | 8 | 175 | 0.0 | 0.0 | 0.00 | 0.00 | 0.00 | 70 | 949.0 |
| 20260506140729 | 8 | 174 | 0.0 | 0.0 | 0.00 | 0.00 | 0.00 | 70 | 949.0 |
| 20260506140522 | 8 | 174 | 0.0 | 0.0 | 0.00 | 0.00 | 0.00 | 70 | 949.0 |
| 20260506140321 | 8 | 175 | 0.0 | 0.0 | 0.00 | 0.00 | 0.00 | 70 | 949.0 |
| 20260506140115 | 8 | 175 | 0.0 | 0.0 | 0.00 | 0.00 | 0.00 | 70 | 949.0 |
| 20260506135914 | 8 | 175 | 0.0 | 0.0 | 0.00 | 0.00 | 0.00 | 71 | 949.0 |
| 20260506135708 | 8 | 175 | 0.0 | 0.0 | 0.00 | 0.00 | 0.00 | 71 | 949.0 |
| 20260506135500 | 8 | 175 | 0.0 | 0.0 | 0.00 | 0.00 | 0.00 | 71 | 949.0 |
| 20260506135252 | 8 | 174 | 0.0 | 0.0 | 0.00 | 0.00 | 0.00 | 71 | 949.0 |
| 20260506135045 | 8 | 175 | 0.0 | 0.0 | 0.00 | 0.00 | 0.00 | 71 | 949.0 |
| 20260506134839 | 8 | 175 | 0.0 | 0.0 | 0.00 | 0.00 | 0.00 | 71 | 949.0 |
| 20260506134630 | 8 | 174 | 0.0 | 0.0 | 0.00 | 0.00 | 0.00 | 70 | 949.0 |
| 20260506134428 | 8 | 175 | 0.0 | 0.0 | 0.00 | 0.00 | 0.00 | 70 | 949.0 |
| 20260506133859 | 8 | 174 | 0.0 | 0.0 | 0.00 | 0.00 | 0.00 | 70 | 949.0 |
| 20260506133649 | 8 | 175 | 0.0 | 0.0 | 0.00 | 0.00 | 0.00 | 70 | 949.0 |
| 20260506133439 | 8 | 174 | 0.0 | 0.0 | 0.00 | 0.00 | 0.00 | 70 | 949.0 |
| 20260506132555 | 7 | 175 | 0.0 | 0.0 | 0.00 | 0.00 | 0.00 | 69 | 949.0 |
| 20260506132037 | 7 | 174 | 0.0 | 0.0 | 0.00 | 0.00 | 0.00 | 67 | 948.0 |
| 20260506131828 | 7 | 175 | 0.0 | 0.0 | 0.00 | 0.00 | 0.00 | 66 | 948.0 |
| 20260506131619 | 7 | 174 | 0.0 | 0.0 | 0.00 | 0.00 | 0.00 | 66 | 948.0 |
| 20260506131416 | 7 | 174 | 0.0 | 0.0 | 0.00 | 0.00 | 0.00 | 66 | 948.0 |
| 20260506131210 | 7 | 174 | 0.0 | 0.0 | 0.00 | 0.00 | 0.00 | 66 | 948.0 |
| 20260506131006 | 7 | 175 | 0.0 | 0.0 | 0.00 | 0.00 | 0.00 | 66 | 948.0 |
| 20260506130759 | 7 | 175 | 0.0 | 0.0 | 0.00 | 0.00 | 0.00 | 66 | 948.0 |
| 20260506130554 | 7 | 175 | 0.0 | 0.0 | 0.00 | 0.00 | 0.00 | 66 | 948.0 |
| 20260506130347 | 7 | 175 | 0.0 | 0.0 | 0.00 | 0.00 | 0.00 | 66 | 948.0 |
| 20260506130149 | 7 | 175 | 0.0 | 0.0 | 0.00 | 0.00 | 0.00 | 66 | 948.0 |
| 20260506125305 | 7 | 174 | 0.0 | 0.0 | 0.00 | 0.00 | 0.00 | 65 | 949.0 |
| 20260506125058 | 7 | 174 | 0.0 | 0.0 | 0.00 | 0.00 | 0.00 | 65 | 949.0 |
| 20260506124857 | 7 | 174 | 0.0 | 0.0 | 0.00 | 0.00 | 0.00 | 65 | 949.0 |
| 20260506124655 | 7 | 175 | 0.0 | 0.0 | 0.00 | 0.00 | 0.00 | 65 | 949.0 |
| 20260506124444 | 7 | 174 | 0.0 | 0.0 | 0.00 | 0.00 | 0.00 | 65 | 949.0 |
| 20260506124238 | 7 | 174 | 0.0 | 0.0 | 0.00 | 0.00 | 0.00 | 65 | 949.0 |
| 20260506124031 | 7 | 174 | 0.0 | 0.0 | 0.00 | 0.00 | 0.00 | 65 | 949.0 |
| 20260506123826 | 7 | 175 | 0.0 | 0.0 | 0.00 | 0.00 | 0.00 | 64 | 948.0 |
| 20260506123306 | 7 | 175 | 0.0 | 0.0 | 0.00 | 0.00 | 0.00 | 63 | 948.0 |
| 20260506122732 | 7 | 174 | 0.0 | 0.0 | 0.00 | 0.00 | 0.00 | 63 | 948.0 |
| 20260506122525 | 7 | 174 | 0.0 | 0.0 | 0.00 | 0.00 | 0.00 | 63 | 948.0 |
| 20260506121956 | 7 | 174 | 0.0 | 0.0 | 0.00 | 0.00 | 0.00 | 63 | 948.0 |
| 20260506121755 | 7 | 175 | 0.0 | 0.0 | 0.00 | 0.00 | 0.00 | 63 | 948.0 |
| 20260506121553 | 7 | 175 | 0.0 | 0.0 | 0.00 | 0.00 | 0.00 | 62 | 948.0 |
| 20260506121353 | 8 | 175 | 0.0 | 0.0 | 0.00 | 0.00 | 0.00 | 63 | 948.0 |
| 20260506121150 | 8 | 175 | 0.0 | 0.0 | 0.00 | 0.00 | 0.00 | 63 | 948.0 |
| 20260506120941 | 8 | 175 | 0.0 | 0.0 | 0.00 | 0.00 | 0.00 | 62 | 948.0 |
| 20260506120741 | 8 | 174 | 0.0 | 0.0 | 0.00 | 0.00 | 0.00 | 60 | 948.0 |
| 20260506120538 | 8 | 175 | 0.0 | 0.0 | 0.00 | 0.00 | 0.00 | 59 | 948.0 |
| 20260506120012 | 8 | 174 | 0.0 | 0.0 | 0.00 | 0.00 | 0.00 | 58 | 948.0 |
| 20260506115812 | 8 | 175 | 0.0 | 0.0 | 0.00 | 0.00 | 0.00 | 58 | 948.0 |
| 20260506115609 | 8 | 174 | 0.0 | 0.0 | 0.00 | 0.00 | 0.00 | 58 | 948.0 |
| 20260506115408 | 8 | 175 | 0.0 | 0.0 | 0.00 | 0.00 | 0.00 | 58 | 948.0 |
| 20260506115203 | 8 | 175 | 0.0 | 0.0 | 0.00 | 0.00 | 0.00 | 58 | 948.0 |
| 20260506114959 | 8 | 175 | 0.0 | 0.0 | 0.00 | 0.00 | 0.00 | 59 | 948.0 |
| 20260506114753 | 8 | 174 | 0.0 | 0.0 | 0.00 | 0.00 | 0.00 | 59 | 948.0 |
| 20260506114548 | 8 | 175 | 0.0 | 0.0 | 0.00 | 0.00 | 0.00 | 59 | 948.0 |
| 20260506114345 | 8 | 174 | 0.0 | 0.0 | 0.00 | 0.00 | 0.00 | 59 | 948.0 |
| 20260506114135 | 8 | 174 | 0.0 | 0.0 | 0.00 | 0.00 | 0.00 | 60 | 948.0 |
| 20260506113931 | 8 | 174 | 0.0 | 0.0 | 0.00 | 0.00 | 0.00 | 60 | 948.0 |
| 20260506113731 | 8 | 175 | 0.0 | 0.0 | 0.00 | 0.00 | 0.00 | 60 | 948.0 |
| 20260506113531 | 8 | 175 | 0.0 | 0.0 | 0.00 | 0.00 | 0.00 | 60 | 948.0 |
| 20260506113010 | 8 | 175 | 0.0 | 0.0 | 0.00 | 0.00 | 0.00 | 60 | 948.0 |
| 20260506112444 | 8 | 174 | 0.0 | 0.0 | 0.00 | 0.00 | 0.00 | 60 | 948.0 |
| 20260506112236 | 8 | 174 | 0.0 | 0.0 | 0.00 | 0.00 | 0.00 | 60 | 948.0 |
| 20260506112032 | 8 | 175 | 0.0 | 0.0 | 0.00 | 0.00 | 0.00 | 60 | 948.0 |
| 20260506111827 | 8 | 174 | 0.0 | 0.0 | 0.00 | 0.00 | 0.00 | 60 | 948.0 |
| 20260506111626 | 8 | 175 | 0.0 | 0.0 | 0.00 | 0.00 | 0.00 | 61 | 948.0 |
| 20260506111419 | 8 | 174 | 0.0 | 0.0 | 0.00 | 0.00 | 0.00 | 61 | 948.0 |
| 20260506111217 | 8 | 174 | 0.0 | 0.0 | 0.00 | 0.00 | 0.00 | 61 | 948.0 |
| 20260506111015 | 8 | 174 | 0.0 | 0.0 | 0.00 | 0.00 | 0.00 | 61 | 948.0 |
| 20260506110810 | 8 | 174 | 0.0 | 0.0 | 0.00 | 0.00 | 0.00 | 62 | 948.0 |
| 20260506110600 | 8 | 175 | 0.0 | 0.0 | 0.00 | 0.00 | 0.00 | 61 | 948.0 |
| 20260506110353 | 8 | 175 | 0.0 | 0.0 | 0.00 | 0.00 | 0.00 | 61 | 948.0 |
| 20260506105506 | 8 | 175 | 0.0 | 0.0 | 0.00 | 0.00 | 0.00 | 61 | 948.0 |
| 20260506105256 | 8 | 175 | 0.0 | 0.0 | 0.00 | 0.00 | 0.00 | 61 | 948.0 |
| 20260506105052 | 8 | 175 | 0.0 | 0.0 | 0.00 | 0.00 | 0.00 | 61 | 948.0 |
| 20260506104851 | 8 | 175 | 0.0 | 0.0 | 0.00 | 0.00 | 0.00 | 61 | 948.0 |
| 20260506104002 | 9 | 174 | 0.0 | 0.0 | 0.00 | 0.00 | 0.00 | 59 | 948.0 |
| 20260506103757 | 8 | 174 | 0.0 | 0.0 | 0.00 | 0.00 | 0.00 | 57 | 948.0 |
| 20260506103555 | 8 | 174 | 0.0 | 0.0 | 0.00 | 0.00 | 0.00 | 56 | 948.0 |
| 20260506103355 | 9 | 174 | 0.0 | 0.0 | 0.00 | 0.00 | 0.00 | 56 | 948.0 |
| 20260506103153 | 9 | 175 | 0.0 | 0.0 | 0.00 | 0.00 | 0.00 | 56 | 948.0 |
| 20260506102950 | 9 | 174 | 0.0 | 0.0 | 0.00 | 0.00 | 0.00 | 56 | 948.0 |
| 20260506102743 | 9 | 175 | 0.0 | 0.0 | 0.00 | 0.00 | 0.00 | 56 | 948.0 |
| 20260506102544 | 9 | 174 | 0.0 | 0.0 | 0.00 | 0.00 | 0.00 | 56 | 948.0 |
| 20260506102335 | 9 | 175 | 0.0 | 0.0 | 0.00 | 0.00 | 0.00 | 57 | 948.0 |
| 20260506102131 | 9 | 175 | 0.0 | 0.0 | 0.00 | 0.00 | 0.00 | 57 | 948.0 |
| 20260506101926 | 9 | 175 | 0.0 | 0.0 | 0.00 | 0.00 | 0.00 | 57 | 948.0 |
| 20260506101722 | 9 | 175 | 0.0 | 0.0 | 0.00 | 0.00 | 0.00 | 58 | 948.0 |
| 20260506101512 | 9 | 175 | 0.0 | 0.0 | 0.00 | 0.00 | 0.00 | 58 | 948.0 |
| 20260506101302 | 9 | 174 | 0.0 | 0.0 | 0.00 | 0.00 | 0.00 | 58 | 948.0 |
| 20260506101059 | 9 | 175 | 0.0 | 0.0 | 0.00 | 0.00 | 0.00 | 56 | 948.0 |
| 20260506100857 | 9 | 175 | 0.0 | 0.0 | 0.00 | 0.00 | 0.00 | 56 | 948.0 |
| 20260506100654 | 9 | 174 | 0.0 | 0.0 | 0.00 | 0.00 | 0.00 | 55 | 948.0 |
| 20260506100449 | 9 | 175 | 0.0 | 0.0 | 0.00 | 0.00 | 0.00 | 55 | 948.0 |
| 20260506095924 | 9 | 174 | 0.0 | 0.0 | 0.00 | 0.00 | 0.00 | 53 | 948.0 |
| 20260506095716 | 9 | 174 | 0.0 | 0.0 | 0.00 | 0.00 | 0.00 | 52 | 948.0 |
| 20260506095506 | 10 | 174 | 0.0 | 0.0 | 0.00 | 0.00 | 0.00 | 53 | 948.0 |
| 20260506094940 | 10 | 175 | 0.0 | 0.0 | 0.00 | 0.00 | 0.00 | 52 | 948.0 |
| 20260506094737 | 10 | 174 | 0.0 | 0.0 | 0.00 | 0.00 | 0.00 | 51 | 948.0 |
| 20260506094527 | 10 | 175 | 0.0 | 0.0 | 0.00 | 0.00 | 0.00 | 51 | 948.0 |
| 20260506094319 | 10 | 174 | 0.0 | 0.0 | 0.00 | 0.00 | 0.00 | 51 | 948.0 |
| 20260506094110 | 10 | 174 | 0.0 | 0.0 | 0.00 | 0.00 | 0.00 | 51 | 948.0 |
| 20260506093905 | 10 | 174 | 0.0 | 0.0 | 0.00 | 0.00 | 0.00 | 51 | 948.0 |
| 20260506093658 | 10 | 174 | 0.0 | 0.0 | 0.00 | 0.00 | 0.00 | 51 | 948.0 |
| 20260506093457 | 10 | 175 | 0.0 | 0.0 | 0.00 | 0.00 | 0.00 | 51 | 948.0 |
| 20260506093255 | 10 | 175 | 0.0 | 0.0 | 0.00 | 0.00 | 0.00 | 51 | 948.0 |
| 20260506093050 | 10 | 174 | 0.0 | 0.0 | 0.00 | 0.00 | 0.00 | 51 | 948.0 |
| 20260506092530 | 10 | 175 | 0.0 | 0.0 | 0.00 | 0.00 | 0.00 | 51 | 948.0 |
| 20260506092330 | 10 | 175 | 0.0 | 0.0 | 0.00 | 0.00 | 0.00 | 52 | 948.0 |
| 20260506092126 | 10 | 175 | 0.0 | 0.0 | 0.00 | 0.00 | 0.00 | 52 | 948.0 |
| 20260506091919 | 10 | 175 | 0.0 | 0.0 | 0.00 | 0.00 | 0.00 | 52 | 948.0 |
| 20260506091714 | 10 | 175 | 0.0 | 0.0 | 0.00 | 0.00 | 0.00 | 50 | 948.0 |
| 20260506091507 | 10 | 175 | 0.0 | 0.0 | 0.00 | 0.00 | 0.00 | 50 | 948.0 |
| 20260506091308 | 10 | 175 | 0.0 | 0.0 | 0.00 | 0.00 | 0.00 | 50 | 948.0 |
| 20260506091101 | 10 | 175 | 0.0 | 0.0 | 0.00 | 0.00 | 0.00 | 50 | 948.0 |
| 20260506090539 | 10 | 175 | 0.0 | 0.0 | 0.00 | 0.00 | 0.00 | 49 | 948.0 |
| 20260506090337 | 10 | 175 | 0.0 | 0.0 | 0.00 | 0.00 | 0.00 | 49 | 948.0 |
| 20260506090135 | 10 | 174 | 0.0 | 0.0 | 0.00 | 0.00 | 0.00 | 49 | 948.0 |
| 20260506085607 | 10 | 175 | 0.0 | 0.0 | 0.00 | 0.00 | 0.00 | 50 | 948.0 |
| 20260506085041 | 10 | 175 | 0.0 | 0.0 | 0.00 | 0.00 | 0.00 | 49 | 948.0 |
| 20260506084514 | 10 | 175 | 0.0 | 0.0 | 0.00 | 0.00 | 0.00 | 48 | 948.0 |
| 20260506084311 | 10 | 175 | 0.0 | 0.0 | 0.00 | 0.00 | 0.00 | 49 | 948.0 |
| 20260506084105 | 10 | 175 | 0.0 | 0.0 | 0.00 | 0.00 | 0.00 | 49 | 948.0 |
| 20260506083900 | 10 | 175 | 0.0 | 0.0 | 0.00 | 0.00 | 0.00 | 47 | 948.0 |
| 20260506083651 | 10 | 174 | 0.0 | 0.0 | 0.00 | 0.00 | 0.00 | 47 | 948.0 |
| 20260506083453 | 10 | 175 | 0.0 | 0.0 | 0.00 | 0.00 | 0.00 | 47 | 948.0 |
| 20260506083250 | 10 | 175 | 0.0 | 0.0 | 0.00 | 0.00 | 0.00 | 47 | 948.0 |
| 20260506083048 | 11 | 174 | 0.0 | 0.0 | 0.00 | 0.00 | 0.00 | 47 | 948.0 |
| 20260506082839 | 11 | 175 | 0.0 | 0.0 | 0.00 | 0.00 | 0.00 | 47 | 948.0 |
| 20260506082630 | 11 | 175 | 0.0 | 0.0 | 0.00 | 0.00 | 0.00 | 46 | 948.0 |
| 20260506082421 | 11 | 175 | 0.0 | 0.0 | 0.00 | 0.00 | 0.00 | 46 | 948.0 |
| 20260506082216 | 11 | 174 | 0.0 | 0.0 | 0.00 | 0.00 | 0.00 | 46 | 948.0 |
| 20260506082009 | 11 | 175 | 0.0 | 0.0 | 0.00 | 0.00 | 0.00 | 46 | 948.0 |
| 20260506081809 | 11 | 175 | 0.0 | 0.0 | 0.00 | 0.00 | 0.00 | 45 | 948.0 |
| 20260506081604 | 11 | 175 | 0.0 | 0.0 | 0.00 | 0.00 | 0.00 | 46 | 948.0 |
| 20260506081358 | 11 | 175 | 0.0 | 0.0 | 0.00 | 0.00 | 0.00 | 46 | 948.0 |
| 20260506081151 | 11 | 175 | 0.0 | 0.0 | 0.00 | 0.00 | 0.00 | 46 | 948.0 |
| 20260506080946 | 11 | 175 | 0.0 | 0.0 | 0.00 | 0.00 | 0.00 | 45 | 948.0 |
| 20260506080742 | 11 | 175 | 0.0 | 0.0 | 0.00 | 0.00 | 0.00 | 45 | 948.0 |
| 20260506080536 | 11 | 175 | 0.0 | 0.0 | 0.00 | 0.00 | 0.00 | 44 | 948.0 |
| 20260506080335 | 11 | 174 | 0.0 | 0.0 | 0.00 | 0.00 | 0.00 | 44 | 948.0 |
| 20260506080134 | 11 | 175 | 0.0 | 0.0 | 0.00 | 0.00 | 0.00 | 44 | 948.0 |
| 20260506073418 | 11 | 168 | 0.0 | 0.0 | 0.00 | 0.00 | 0.00 | 43 | 948.0 |
| 20260506073215 | 11 | 168 | 0.0 | 0.0 | 0.00 | 0.00 | 0.00 | 42 | 948.0 |
| 20260506073010 | 11 | 168 | 0.0 | 0.0 | 0.00 | 0.00 | 0.00 | 42 | 948.0 |
| 20260506072806 | 11 | 168 | 0.0 | 0.0 | 0.00 | 0.00 | 0.00 | 42 | 948.0 |
| 20260506072605 | 12 | 168 | 0.0 | 0.0 | 0.00 | 0.00 | 0.00 | 41 | 948.0 |
| 20260506072404 | 12 | 168 | 0.0 | 0.0 | 0.00 | 0.00 | 0.00 | 41 | 948.0 |
| 20260506072155 | 12 | 168 | 0.0 | 0.0 | 0.00 | 0.00 | 0.00 | 41 | 948.0 |
| 20260506071631 | 12 | 168 | 0.0 | 0.0 | 0.00 | 0.00 | 0.00 | 40 | 948.0 |
| 20260506071431 | 12 | 168 | 0.0 | 0.0 | 0.00 | 0.00 | 0.00 | 40 | 948.0 |
| 20260506071222 | 12 | 168 | 0.0 | 0.0 | 0.00 | 0.00 | 0.00 | 40 | 948.0 |
| 20260506071023 | 12 | 168 | 0.0 | 0.0 | 0.00 | 0.00 | 0.00 | 40 | 948.0 |
| 20260506070820 | 12 | 168 | 0.0 | 0.0 | 0.00 | 0.00 | 0.00 | 40 | 948.0 |
| 20260506070615 | 12 | 168 | 0.0 | 0.0 | 0.00 | 0.00 | 0.00 | 39 | 948.0 |
| 20260506070405 | 12 | 168 | 0.0 | 0.0 | 0.00 | 0.00 | 0.00 | 39 | 948.0 |
| 20260506070205 | 12 | 168 | 0.0 | 0.0 | 0.00 | 0.00 | 0.00 | 39 | 948.0 |
| 20260506062435 | 13 | 168 | 0.0 | 0.0 | 0.00 | 0.00 | 0.00 | 36 | 948.0 |
| 20260506062226 | 13 | 168 | 0.0 | 0.0 | 0.00 | 0.00 | 0.00 | 36 | 948.0 |
| 20260506062025 | 13 | 168 | 0.0 | 0.0 | 0.00 | 0.00 | 0.00 | 36 | 948.0 |
| 20260506061819 | 13 | 168 | 0.0 | 0.0 | 0.00 | 0.00 | 0.00 | 36 | 948.0 |
| 20260506061615 | 13 | 168 | 0.0 | 0.0 | 0.00 | 0.00 | 0.00 | 36 | 948.0 |
| 20260506061044 | 13 | 168 | 0.0 | 0.0 | 0.00 | 0.00 | 0.00 | 35 | 948.0 |
| 20260506060835 | 13 | 168 | 0.0 | 0.0 | 0.00 | 0.00 | 0.00 | 35 | 947.0 |
| 20260506060311 | 14 | 168 | 0.0 | 0.0 | 0.00 | 0.00 | 0.00 | 35 | 947.0 |
| 20260506051222 | 15 | 168 | 0.0 | 0.0 | 0.00 | 0.00 | 0.00 | 32 | 947.0 |
| 20260506050818 | 15 | 168 | 0.0 | 0.0 | 0.00 | 0.00 | 0.00 | 32 | 947.0 |
| 20260506050608 | 15 | 168 | 0.0 | 0.0 | 0.00 | 0.00 | 0.00 | 32 | 947.0 |
| 20260506050404 | 15 | 168 | 0.0 | 0.0 | 0.00 | 0.00 | 0.00 | 32 | 947.0 |
| 20260506050155 | 15 | 168 | 0.0 | 0.0 | 0.00 | 0.00 | 0.00 | 32 | 947.0 |
| 20260506045011 | 15 | 168 | 0.0 | 0.0 | 0.00 | 0.00 | 0.00 | 31 | 947.0 |
| 20260506044812 | 15 | 168 | 0.0 | 4.8 | 0.00 | 0.00 | 0.00 | 31 | 947.0 |
| 20260506044603 | 16 | 168 | 0.0 | 0.0 | 0.00 | 0.00 | 0.00 | 30 | 947.0 |
| 20260506044403 | 16 | 168 | 0.0 | 0.0 | 0.00 | 0.00 | 0.00 | 31 | 947.0 |
| 20260506044203 | 16 | 168 | 0.0 | 0.0 | 0.00 | 0.00 | 0.00 | 31 | 947.0 |
| 20260506043957 | 16 | 168 | 0.0 | 4.8 | 0.00 | 0.00 | 0.00 | 30 | 947.0 |
| 20260506043749 | 16 | 139 | 0.0 | 0.0 | 0.00 | 0.00 | 0.00 | 30 | 947.0 |
| 20260506043543 | 16 | 139 | 0.0 | 4.8 | 0.00 | 0.00 | 0.00 | 29 | 947.0 |
| 20260506043344 | 16 | 139 | 0.0 | 0.0 | 0.00 | 0.00 | 0.00 | 29 | 947.0 |
| 20260506043138 | 16 | 140 | 0.0 | 0.0 | 0.00 | 0.00 | 0.00 | 30 | 947.0 |
| 20260506042935 | 16 | 140 | 0.0 | 0.0 | 0.00 | 0.00 | 0.00 | 29 | 947.0 |
| 20260506042055 | 16 | 158 | 0.0 | 0.0 | 0.00 | 0.00 | 0.00 | 29 | 947.0 |
| 20260506041537 | 15 | 213 | 0.0 | 4.8 | 0.00 | 0.00 | 0.00 | 30 | 947.0 |
| 20260506041330 | 16 | 211 | 0.0 | 0.0 | 0.00 | 0.00 | 0.00 | 31 | 947.0 |
| 20260506040809 | 16 | 211 | 0.0 | 0.0 | 0.00 | 0.00 | 0.00 | 30 | 947.0 |
| 20260506040603 | 16 | 211 | 0.0 | 0.0 | 0.00 | 0.00 | 0.00 | 30 | 947.0 |
| 20260506040034 | 16 | 211 | 1.6 | 4.8 | 0.00 | 0.00 | 0.00 | 29 | 947.0 |
| 20260506035834 | 16 | 194 | 0.0 | 0.0 | 0.00 | 0.00 | 0.00 | 29 | 947.0 |
| 20260506035626 | 16 | 195 | 0.0 | 0.0 | 0.00 | 0.00 | 0.00 | 29 | 947.0 |
| 20260506035425 | 16 | 195 | 0.0 | 0.0 | 0.00 | 0.00 | 0.00 | 30 | 947.0 |
| 20260506035222 | 16 | 195 | 0.0 | 0.0 | 0.00 | 0.00 | 0.00 | 30 | 947.0 |
| 20260506035018 | 16 | 195 | 0.0 | 0.0 | 0.00 | 0.00 | 0.00 | 30 | 947.0 |
| 20260506034452 | 16 | 195 | 0.0 | 0.0 | 0.00 | 0.00 | 0.00 | 30 | 947.0 |
| 20260506034242 | 16 | 195 | 0.0 | 0.0 | 0.00 | 0.00 | 0.00 | 29 | 947.0 |
| 20260506034034 | 16 | 195 | 0.0 | 0.0 | 0.00 | 0.00 | 0.00 | 29 | 947.0 |
| 20260506033827 | 16 | 195 | 0.0 | 0.0 | 0.00 | 0.00 | 0.00 | 29 | 947.0 |
| 20260506033258 | 16 | 195 | 0.0 | 0.0 | 0.00 | 0.00 | 0.00 | 30 | 947.0 |
| 20260506033050 | 16 | 195 | 0.0 | 0.0 | 0.00 | 0.00 | 0.00 | 29 | 947.0 |
| 20260506032848 | 16 | 195 | 0.0 | 0.0 | 0.00 | 0.00 | 0.00 | 29 | 947.0 |
| 20260506032638 | 16 | 195 | 0.0 | 0.0 | 0.00 | 0.00 | 0.00 | 29 | 947.0 |
| 20260506032437 | 17 | 195 | 0.0 | 0.0 | 0.00 | 0.00 | 0.00 | 29 | 946.0 |
| 20260506032234 | 17 | 195 | 0.0 | 0.0 | 0.00 | 0.00 | 0.00 | 29 | 946.0 |
| 20260506031658 | 17 | 195 | 0.0 | 0.0 | 0.00 | 0.00 | 0.00 | 28 | 946.0 |
| 20260506031141 | 17 | 195 | 0.0 | 4.8 | 0.00 | 0.00 | 0.00 | 28 | 946.0 |
| 20260506030613 | 17 | 198 | 0.0 | 0.0 | 0.00 | 0.00 | 0.00 | 29 | 946.0 |
| 20260506030409 | 17 | 198 | 0.0 | 0.0 | 0.00 | 0.00 | 0.00 | 29 | 946.0 |
| 20260506030201 | 17 | 197 | 0.0 | 4.8 | 0.00 | 0.00 | 0.00 | 29 | 946.0 |
| 20260506025952 | 17 | 142 | 0.0 | 0.0 | 0.00 | 0.00 | 0.00 | 28 | 946.0 |
| 20260506025749 | 17 | 142 | 0.0 | 0.0 | 0.00 | 0.00 | 0.00 | 28 | 946.0 |
| 20260506025540 | 17 | 142 | 0.0 | 4.8 | 0.00 | 0.00 | 0.00 | 28 | 946.0 |
| 20260506025333 | 18 | 142 | 0.0 | 4.8 | 0.00 | 0.00 | 0.00 | 28 | 946.0 |
| 20260506024802 | 18 | 141 | 0.0 | 6.4 | 0.00 | 0.00 | 0.00 | 28 | 946.0 |
| 20260506024557 | 18 | 141 | 0.0 | 0.0 | 0.00 | 0.00 | 0.00 | 28 | 946.0 |
| 20260506024356 | 18 | 141 | 1.6 | 3.2 | 0.00 | 0.00 | 0.00 | 28 | 946.0 |
| 20260506024152 | 18 | 140 | 0.0 | 6.4 | 0.00 | 0.00 | 0.00 | 28 | 946.0 |
| 20260506023626 | 18 | 166 | 0.0 | 0.0 | 0.00 | 0.00 | 0.00 | 28 | 946.0 |
| 20260506023426 | 18 | 169 | 0.0 | 0.0 | 0.00 | 0.00 | 0.00 | 29 | 946.0 |
| 20260506023221 | 18 | 168 | 0.0 | 0.0 | 0.00 | 0.00 | 0.00 | 28 | 946.0 |
| 20260506023016 | 18 | 168 | 0.0 | 0.0 | 0.00 | 0.00 | 0.00 | 29 | 946.0 |
| 20260506022806 | 18 | 168 | 0.0 | 0.0 | 0.00 | 0.00 | 0.00 | 28 | 946.0 |
| 20260506022600 | 18 | 166 | 0.0 | 0.0 | 0.00 | 0.00 | 0.00 | 27 | 946.0 |
| 20260506022350 | 18 | 166 | 0.0 | 0.0 | 0.00 | 0.00 | 0.00 | 27 | 946.0 |
| 20260506022151 | 18 | 166 | 0.0 | 0.0 | 0.00 | 0.00 | 0.00 | 27 | 946.0 |
| 20260506021616 | 18 | 166 | 0.0 | 0.0 | 0.00 | 0.00 | 0.00 | 28 | 946.0 |
| 20260506021415 | 18 | 166 | 0.0 | 0.0 | 0.00 | 0.00 | 0.00 | 28 | 946.0 |
| 20260506021205 | 18 | 166 | 0.0 | 0.0 | 0.00 | 0.00 | 0.00 | 27 | 946.0 |
| 20260506020644 | 18 | 166 | 0.0 | 0.0 | 0.00 | 0.00 | 0.00 | 27 | 946.0 |
| 20260506020441 | 19 | 166 | 0.0 | 0.0 | 0.00 | 0.00 | 0.00 | 27 | 946.0 |
| 20260506020235 | 19 | 166 | 0.0 | 0.0 | 0.00 | 0.00 | 0.00 | 27 | 946.0 |
| 20260506020031 | 19 | 166 | 0.0 | 0.0 | 0.00 | 0.00 | 0.00 | 27 | 946.0 |
| 20260506015822 | 19 | 166 | 0.0 | 0.0 | 0.00 | 0.00 | 0.00 | 27 | 946.0 |
| 20260506015257 | 19 | 166 | 0.0 | 0.0 | 0.00 | 0.00 | 0.00 | 27 | 946.0 |
| 20260506015052 | 19 | 166 | 0.0 | 0.0 | 0.00 | 0.00 | 0.00 | 27 | 946.0 |
| 20260506014853 | 20 | 166 | 0.0 | 0.0 | 0.00 | 0.00 | 0.00 | 26 | 946.0 |
| 20260506014645 | 20 | 166 | 0.0 | 0.0 | 0.00 | 0.00 | 0.00 | 26 | 946.0 |
| 20260506014438 | 20 | 166 | 0.0 | 0.0 | 0.00 | 0.00 | 0.00 | 26 | 946.0 |
| 20260506014237 | 20 | 166 | 0.0 | 0.0 | 0.00 | 0.00 | 0.00 | 26 | 946.0 |
| 20260506014032 | 20 | 166 | 0.0 | 0.0 | 0.00 | 0.00 | 0.00 | 25 | 946.0 |
| 20260506013823 | 20 | 166 | 0.0 | 0.0 | 0.00 | 0.00 | 0.00 | 25 | 946.0 |
| 20260506013621 | 20 | 166 | 0.0 | 0.0 | 0.00 | 0.00 | 0.00 | 25 | 946.0 |
| 20260506013415 | 20 | 166 | 0.0 | 0.0 | 0.00 | 0.00 | 0.00 | 25 | 946.0 |
| 20260506013205 | 20 | 166 | 0.0 | 0.0 | 0.00 | 0.00 | 0.00 | 25 | 946.0 |
| 20260506013005 | 21 | 166 | 0.0 | 0.0 | 0.00 | 0.00 | 0.00 | 24 | 946.0 |
| 20260506012801 | 21 | 166 | 0.0 | 0.0 | 0.00 | 0.00 | 0.00 | 24 | 946.0 |
| 20260506012553 | 21 | 165 | 0.0 | 0.0 | 0.00 | 0.00 | 0.00 | 24 | 946.0 |
| 20260506012354 | 21 | 165 | 0.0 | 0.0 | 0.00 | 0.00 | 0.00 | 23 | 946.0 |
| 20260506012154 | 21 | 165 | 0.0 | 0.0 | 0.00 | 0.00 | 0.00 | 23 | 946.0 |
| 20260506011954 | 21 | 165 | 0.0 | 0.0 | 0.00 | 0.00 | 0.00 | 23 | 946.0 |
| 20260506011744 | 21 | 165 | 0.0 | 4.8 | 0.00 | 0.00 | 0.00 | 23 | 946.0 |
| 20260506011542 | 21 | 167 | 3.2 | 4.8 | 0.00 | 0.00 | 0.00 | 23 | 946.0 |
| 20260506011339 | 21 | 225 | 3.2 | 4.8 | 0.00 | 0.00 | 0.00 | 23 | 946.0 |
| 20260506010808 | 21 | 177 | 1.6 | 4.8 | 0.00 | 0.00 | 0.00 | 24 | 946.0 |
| 20260506010606 | 21 | 137 | 0.0 | 4.8 | 0.00 | 0.00 | 0.00 | 23 | 946.0 |
| 20260506010401 | 21 | 135 | 0.0 | 0.0 | 0.00 | 0.00 | 0.00 | 23 | 946.0 |
| 20260506010202 | 21 | 187 | 0.0 | 3.2 | 0.00 | 0.00 | 0.00 | 23 | 946.0 |
| 20260506010001 | 21 | 196 | 0.0 | 0.0 | 0.00 | 0.00 | 0.00 | 23 | 946.0 |
| 20260506005445 | 22 | 193 | 0.0 | 4.8 | 0.00 | 0.00 | 0.00 | 23 | 946.0 |
| 20260506005242 | 22 | 207 | 0.0 | 0.0 | 0.00 | 0.00 | 0.00 | 23 | 946.0 |
| 20260506005042 | 22 | 207 | 0.0 | 0.0 | 0.00 | 0.00 | 0.00 | 22 | 946.0 |
| 20260506004519 | 22 | 208 | 0.0 | 3.2 | 0.00 | 0.00 | 0.00 | 22 | 946.0 |
| 20260506004309 | 23 | 346 | 0.0 | 0.0 | 0.00 | 0.00 | 0.00 | 22 | 946.0 |
| 20260506004101 | 23 | 346 | 0.0 | 0.0 | 0.00 | 0.00 | 0.00 | 21 | 946.0 |
| 20260506003535 | 23 | 346 | 1.6 | 8.0 | 0.00 | 0.00 | 0.00 | 21 | 947.0 |
| 20260506003325 | 24 | 31 | 4.8 | 8.0 | 0.00 | 0.00 | 0.00 | 21 | 947.0 |
| 20260506002807 | 25 | 146 | 0.0 | 8.0 | 0.00 | 0.00 | 0.00 | 21 | 947.0 |
| 20260506002557 | 25 | 28 | 0.0 | 8.0 | 0.00 | 0.00 | 0.00 | 21 | 947.0 |
| 20260506002354 | 25 | 147 | 0.0 | 0.0 | 0.00 | 0.00 | 0.00 | 21 | 947.0 |
| 20260506002146 | 25 | 151 | 3.2 | 4.8 | 0.00 | 0.00 | 0.00 | 21 | 947.0 |
| 20260506001614 | 25 | 325 | 0.0 | 0.0 | 0.00 | 0.00 | 0.00 | 21 | 947.0 |
| 20260506001407 | 25 | 325 | 0.0 | 0.0 | 0.00 | 0.00 | 0.00 | 21 | 947.0 |
| 20260506001209 | 25 | 325 | 3.2 | 4.8 | 0.00 | 0.00 | 0.00 | 21 | 947.0 |
| 20260506000635 | 26 | 257 | 0.0 | 4.8 | 0.00 | 0.00 | 0.00 | 20 | 947.0 |
| 20260506000109 | 26 | 72 | 0.0 | 0.0 | 0.00 | 0.00 | 0.00 | 20 | 947.0 |
| 20260505235903 | 26 | 72 | 0.0 | 6.4 | 0.00 | 0.00 | 0.00 | 21 | 947.0 |
| 20260505235703 | 26 | 70 | 4.8 | 6.4 | 0.00 | 0.00 | 0.00 | 21 | 947.0 |
| 20260505235455 | 26 | 34 | 4.8 | 6.4 | 0.00 | 0.00 | 0.00 | 21 | 947.0 |
| 20260505235250 | 26 | 39 | 4.8 | 6.4 | 0.00 | 0.00 | 0.00 | 20 | 947.0 |
| 20260505235046 | 26 | 66 | 3.2 | 6.4 | 0.00 | 0.00 | 0.00 | 21 | 947.0 |
| 20260505234843 | 26 | 49 | 0.0 | 6.4 | 0.00 | 0.00 | 0.00 | 21 | 947.0 |
| 20260505234639 | 27 | 77 | 4.8 | 6.4 | 0.00 | 0.00 | 0.00 | 20 | 947.0 |
| 20260505234117 | 27 | 41 | 1.6 | 8.0 | 0.00 | 0.00 | 0.00 | 20 | 947.0 |
| 20260505233552 | 27 | 60 | 4.8 | 8.0 | 0.00 | 0.00 | 0.00 | 20 | 947.0 |
| 20260505233342 | 26 | 42 | 6.4 | 8.0 | 0.00 | 0.00 | 0.00 | 21 | 947.0 |
| 20260505233135 | 26 | 49 | 6.4 | 8.0 | 0.00 | 0.00 | 0.00 | 21 | 947.0 |
| 20260505232929 | 26 | 58 | 3.2 | 4.8 | 0.00 | 0.00 | 0.00 | 21 | 947.0 |
| 20260505232723 | 26 | 12 | 0.0 | 4.8 | 0.00 | 0.00 | 0.00 | 21 | 947.0 |
| 20260505232514 | 26 | 12 | 0.0 | 4.8 | 0.00 | 0.00 | 0.00 | 21 | 947.0 |
| 20260505231949 | 26 | 15 | 4.8 | 6.4 | 0.00 | 0.00 | 0.00 | 21 | 947.0 |
| 20260505231741 | 26 | 290 | 0.0 | 4.8 | 0.00 | 0.00 | 0.00 | 21 | 947.0 |
| 20260505231536 | 26 | 39 | 0.0 | 4.8 | 0.00 | 0.00 | 0.00 | 21 | 947.0 |
| 20260505231010 | 25 | 39 | 3.2 | 6.4 | 0.00 | 0.00 | 0.00 | 21 | 947.0 |
| 20260505230809 | 25 | 45 | 6.4 | 6.4 | 0.00 | 0.00 | 0.00 | 21 | 947.0 |
| 20260505230608 | 25 | 1 | 4.8 | 6.4 | 0.00 | 0.00 | 0.00 | 21 | 947.0 |
| 20260505230405 | 25 | 36 | 4.8 | 6.4 | 0.00 | 0.00 | 0.00 | 22 | 947.0 |
| 20260505230205 | 24 | 52 | 0.0 | 3.2 | 0.00 | 0.00 | 0.00 | 21 | 947.0 |
| 20260505225321 | 23 | 357 | 4.8 | 8.0 | 0.00 | 0.00 | 0.00 | 22 | 948.0 |
| 20260505225120 | 24 | 46 | 0.0 | 6.4 | 0.00 | 0.00 | 0.00 | 22 | 948.0 |
| 20260505224911 | 24 | 69 | 1.6 | 6.4 | 0.00 | 0.00 | 0.00 | 22 | 948.0 |
| 20260505224704 | 24 | 72 | 1.6 | 6.4 | 0.00 | 0.00 | 0.00 | 22 | 948.0 |
| 20260505224503 | 24 | 71 | 0.0 | 6.4 | 0.00 | 0.00 | 0.00 | 22 | 948.0 |
| 20260505224256 | 24 | 33 | 0.0 | 6.4 | 0.00 | 0.00 | 0.00 | 22 | 948.0 |
| 20260505223731 | 24 | 63 | 0.0 | 4.8 | 0.00 | 0.00 | 0.00 | 22 | 948.0 |
| 20260505223528 | 23 | 80 | 0.0 | 3.2 | 0.00 | 0.00 | 0.00 | 22 | 948.0 |
| 20260505223320 | 23 | 39 | 0.0 | 9.7 | 0.00 | 0.00 | 0.00 | 22 | 948.0 |
| 20260505223120 | 23 | 40 | 4.8 | 9.7 | 0.00 | 0.00 | 0.00 | 22 | 948.0 |
| 20260505222910 | 23 | 60 | 1.6 | 9.7 | 0.00 | 0.00 | 0.00 | 22 | 948.0 |
| 20260505222700 | 23 | 63 | 4.8 | 9.7 | 0.00 | 0.00 | 0.00 | 22 | 948.0 |
| 20260505221828 | 23 | 357 | 4.8 | 8.0 | 0.00 | 0.00 | 0.00 | 22 | 948.0 |
| 20260505220937 | 23 | 23 | 0.0 | 6.4 | 0.00 | 0.00 | 0.00 | 22 | 948.0 |
| 20260505220735 | 23 | 30 | 0.0 | 6.4 | 0.00 | 0.00 | 0.00 | 23 | 948.0 |
| 20260505220534 | 23 | 337 | 0.0 | 6.4 | 0.00 | 0.00 | 0.00 | 24 | 948.0 |
| 20260505220329 | 23 | 50 | 4.8 | 8.0 | 0.00 | 0.00 | 0.00 | 22 | 948.0 |
| 20260505220124 | 23 | 69 | 0.0 | 8.0 | 0.00 | 0.00 | 0.00 | 22 | 948.0 |
| 20260505215922 | 23 | 58 | 0.0 | 8.0 | 0.00 | 0.00 | 0.00 | 23 | 948.0 |